Latest Weather Observations for Yeppoon

IDQ60801

Issued at 6:05 pm EST Friday 25 July 2014 (issued every 30 minutes, with the page automatically refreshed every 10 minutes)

About weather observations | Map of weather stations | Latest weather observations for QLD | Other Formats
Station Details ID: 033294 Name: YEPPOON THE ESPLANADE Lat: -23.14 Lon: 150.75 Height: 5.5 m
Data from the previous 72 hours. | See also: Recent months at Yeppoon
Date/Time
EST
Temp
°C
App
Temp
°C
Dew
Point
Rel
Hum
%
Delta-T
°C
Wind Press
QNH
hPa
Press
MSL
hPa
Rain
since 9 am
mm
Dir
 
Spd
km/h
Gust
km/h
Spd
kts
Gust
kts
25/06:00pm 19.2 19.8 15.8 81 2.0 SE 7 13 4 7 1023.7 1023.7 0.0
25/05:30pm 19.7 19.7 16.2 80 2.1 ESE 11 17 6 9 1023.5 - 0.0
25/05:00pm 19.8 19.6 16.8 83 1.8 ESE 13 20 7 11 1023.4 1023.4 0.0
25/04:30pm 20.4 20.0 17.1 81 2.0 ESE 15 22 8 12 1023.1 - 0.0
25/04:00pm 20.3 19.3 16.6 79 2.2 ESE 17 24 9 13 1022.9 1022.9 0.0
25/03:30pm 20.3 18.9 16.5 79 2.3 ESE 19 26 10 14 1022.8 - 0.0
25/03:00pm 21.1 20.1 16.6 75 2.7 ESE 17 24 9 13 1022.7 1022.7 0.0
25/02:30pm 21.4 20.3 16.4 73 3.0 ESE 17 24 9 13 1022.8 - 0.0
25/02:00pm 21.3 20.5 17.0 76 2.6 E 17 24 9 13 1023.2 1023.2 0.0
25/01:30pm 21.5 20.5 16.5 73 3.0 E 17 24 9 13 1023.4 - 0.0
25/01:00pm 21.8 20.8 16.7 73 3.1 E 17 24 9 13 1023.7 1023.7 0.0
25/12:30pm 21.4 20.9 16.8 75 2.8 E 15 22 8 12 1024.0 - 0.0
25/12:00pm 21.5 21.3 16.7 74 2.9 ESE 13 20 7 11 1024.5 1024.5 0.0
25/11:30am 20.8 19.2 16.1 74 2.8 ESE 19 28 10 15 1025.0 - 0.0
25/11:00am 21.1 19.8 15.7 71 3.2 ESE 17 28 9 15 1025.3 1025.3 0.0
25/10:30am 20.9 20.1 16.0 73 2.9 SE 15 20 8 11 1025.4 - 0.0
25/10:00am 20.7 20.3 16.2 75 2.7 ESE 13 22 7 12 1025.4 1025.4 0.0
25/09:30am 19.9 19.7 16.6 81 2.0 SE 13 20 7 11 1025.4 - 0.0
25/09:00am 18.8 18.6 16.6 87 1.3 SSE 13 17 7 9 1025.5 1025.5 0.2
25/08:30am 17.5 18.2 16.1 91 0.8 S 7 11 4 6 1025.3 - 0.2
25/08:00am 16.6 17.2 15.7 94 0.5 SSW 7 9 4 5 1024.9 1024.9 0.2
25/07:30am 15.5 15.3 14.8 96 0.4 SW 9 13 5 7 1024.5 - 0.2
25/07:00am 15.0 15.0 14.3 96 0.4 SW 7 11 4 6 1024.0 1024.0 0.2
25/06:30am 14.8 14.4 14.1 96 0.4 SW 9 13 5 7 1023.6 - 0.2
25/06:00am 15.0 14.7 14.3 96 0.4 SW 9 11 5 6 1023.5 1023.5 0.2
25/05:30am 15.2 15.0 14.7 97 0.3 SW 9 13 5 7 1023.2 - 0.2
25/05:00am 15.2 15.0 14.7 97 0.3 SW 9 13 5 7 1022.7 1022.7 0.2
25/04:30am 15.3 15.1 14.8 97 0.3 SW 9 13 5 7 1022.5 - 0.2
25/04:00am 15.3 15.1 14.8 97 0.3 SW 9 13 5 7 1022.3 1022.3 0.2
25/03:30am 15.3 15.5 14.8 97 0.3 SW 7 11 4 6 1022.5 - 0.2
25/03:00am 15.1 14.9 14.7 97 0.2 SSW 9 13 5 7 1022.5 1022.5 0.0
25/02:30am 15.3 15.2 15.0 98 0.2 SW 9 11 5 6 1022.6 - 0.0
25/02:00am 14.8 14.5 14.4 97 0.2 W 9 13 5 7 1022.7 1022.7 0.0
25/01:30am 15.0 14.7 14.5 97 0.3 W 9 13 5 7 1022.8 - 0.0
25/01:00am 15.0 14.8 14.6 97 0.2 WSW 9 11 5 6 1022.8 1022.8 0.0
25/12:30am 15.0 15.1 14.5 97 0.3 WSW 7 9 4 5 1022.8 - 0.0
25/12:00am 14.9 15.0 14.4 97 0.3 W 7 9 4 5 1022.8 1022.8 0.0
 
Date/Time
EST
Temp
°C
App
Temp
°C
Dew
Point
Rel
Hum
%
Delta-T
°C
Wind Press
QNH
hPa
Press
MSL
hPa
Rain
since 9 am
mm
Dir
 
Spd
km/h
Gust
km/h
Spd
kts
Gust
kts
24/11:30pm 15.2 15.3 14.5 96 0.4 W 7 9 4 5 1022.6 - 0.0
24/11:00pm 15.9 16.2 15.0 94 0.5 W 7 9 4 5 1022.6 1022.6 0.0
24/10:30pm 16.1 16.5 15.2 94 0.5 W 7 9 4 5 1022.6 - 0.0
24/10:00pm 16.6 17.2 15.2 91 0.8 SSW 6 6 3 3 1022.6 1022.6 0.0
24/09:30pm 18.5 19.2 16.1 86 1.4 ESE 7 11 4 6 1022.6 - 0.0
24/09:00pm 18.6 19.2 16.8 89 1.1 ESE 9 13 5 7 1022.7 1022.7 0.0
24/08:30pm 18.7 19.4 17.0 90 1.0 ESE 9 15 5 8 1022.6 - 0.0
24/08:00pm 18.7 19.0 16.9 89 1.1 E 11 17 6 9 1022.2 1022.2 0.0
24/07:30pm 18.7 19.0 17.0 90 1.0 ESE 11 17 6 9 1022.0 - 0.0
24/07:00pm 18.7 19.5 17.2 91 0.9 E 9 13 5 7 1021.6 1021.6 0.0
24/06:30pm 18.8 19.1 17.1 90 1.0 E 11 15 6 8 1021.2 - 0.0
24/06:00pm 18.9 19.2 17.1 89 1.1 E 11 15 6 8 1020.8 1020.8 0.0
24/05:30pm 19.1 18.9 16.8 86 1.4 E 13 17 7 9 1020.5 - 0.0
24/05:00pm 19.4 18.6 17.1 86 1.4 E 17 22 9 12 1020.4 1020.4 0.0
24/04:30pm 19.7 18.7 16.5 82 1.9 E 17 24 9 13 1020.1 - 0.0
24/04:00pm 19.9 18.4 16.4 80 2.1 E 19 24 10 13 1020.0 1020.0 0.0
24/03:30pm 20.3 19.2 16.3 78 2.4 E 17 24 9 13 1019.9 - 0.0
24/03:00pm 20.7 19.7 16.7 78 2.4 E 17 20 9 11 1019.9 1019.9 0.0
24/02:30pm 20.9 19.7 16.1 74 2.9 E 17 24 9 13 1019.7 - 0.0
24/02:00pm 21.2 20.0 16.2 73 3.0 E 17 24 9 13 1019.7 1019.7 0.0
24/01:30pm 21.6 20.6 16.5 73 3.1 E 17 24 9 13 1019.8 - 0.0
24/01:00pm 21.1 19.1 15.5 70 3.3 ESE 20 28 11 15 1020.0 1020.0 0.0
24/12:30pm 21.0 19.1 15.2 69 3.4 ESE 19 26 10 14 1020.4 - 0.0
24/12:00pm 20.6 19.1 15.2 71 3.2 ESE 17 26 9 14 1020.9 1020.9 0.0
24/11:30am 20.7 19.3 15.5 72 3.1 SE 17 24 9 13 1021.2 - 0.0
24/11:00am 20.2 18.2 14.9 71 3.1 ESE 19 26 10 14 1021.3 1021.3 0.0
24/10:30am 19.8 18.7 15.2 75 2.7 SE 15 24 8 13 1021.5 - 0.0
24/10:00am 19.2 17.9 14.9 76 2.5 SE 15 20 8 11 1021.5 1021.5 0.0
24/09:30am 19.0 17.1 14.1 73 2.8 ESE 17 22 9 12 1021.4 - 0.0
24/09:00am 17.9 16.6 13.8 77 2.3 SE 13 20 7 11 1021.6 1021.6 0.0
24/08:30am 16.9 16.7 13.7 81 1.8 SSE 7 17 4 9 1021.5 - 0.0
24/08:00am 15.6 15.3 13.4 87 1.2 SSW 7 11 4 6 1021.4 1021.4 0.0
24/07:30am 14.3 13.8 12.8 91 0.8 SW 7 11 4 6 1021.1 - 0.0
24/07:00am 13.4 12.3 12.1 92 0.7 SW 9 11 5 6 1020.8 1020.8 0.0
24/06:30am 13.5 12.2 12.4 93 0.6 SSW 11 15 6 8 1020.5 - 0.0
24/06:00am 13.4 12.5 12.5 94 0.5 SSW 9 13 5 7 1020.4 1020.4 0.0
24/05:30am 13.6 12.7 12.5 93 0.6 SSW 9 13 5 7 1020.1 - 0.0
24/05:00am 13.6 12.7 12.5 93 0.6 SSW 9 15 5 8 1019.9 1019.9 0.0
24/04:30am 13.5 13.0 12.6 94 0.5 SSW 7 13 4 7 1019.8 - 0.0
24/04:00am 13.7 13.2 12.6 93 0.6 SSW 7 11 4 6 1019.7 1019.7 0.0
24/03:30am 13.8 13.3 12.7 93 0.6 SW 7 11 4 6 1019.8 - 0.0
24/03:00am 13.9 13.4 12.8 93 0.6 SW 7 9 4 5 1019.9 1019.9 0.0
24/02:30am 13.9 13.1 13.0 94 0.5 SW 9 13 5 7 1019.9 - 0.0
24/02:00am 14.0 13.2 12.9 93 0.6 SW 9 11 5 6 1019.9 1019.9 0.0
24/01:30am 14.3 13.6 13.2 93 0.6 SW 9 11 5 6 1020.1 - 0.0
24/01:00am 14.4 13.7 13.1 92 0.7 SW 9 13 5 7 1020.3 1020.3 0.0
24/12:30am 14.4 13.7 13.1 92 0.7 SW 9 11 5 6 1020.3 - 0.0
24/12:00am 14.4 13.7 13.3 93 0.6 SW 9 11 5 6 1020.3 1020.3 0.0
 
Date/Time
EST
Temp
°C
App
Temp
°C
Dew
Point
Rel
Hum
%
Delta-T
°C
Wind Press
QNH
hPa
Press
MSL
hPa
Rain
since 9 am
mm
Dir
 
Spd
km/h
Gust
km/h
Spd
kts
Gust
kts
23/11:30pm 14.3 13.9 13.0 92 0.7 WSW 7 9 4 5 1020.3 - 0.0
23/11:00pm 14.2 13.7 12.7 91 0.8 WSW 7 9 4 5 1020.4 1020.4 0.0
23/10:30pm 14.5 14.1 12.9 90 0.9 SSE 7 9 4 5 1020.4 - 0.0
23/10:00pm 15.2 15.1 13.4 89 1.0 SE 6 9 3 5 1020.3 1020.3 0.0
23/09:30pm 15.5 15.4 13.3 87 1.2 S 6 11 3 6 1020.4 - 0.0
23/09:00pm 16.4 15.9 13.9 85 1.4 E 9 13 5 7 1020.0 1020.0 0.0
23/08:30pm 18.5 17.7 15.1 80 2.0 E 13 17 7 9 1019.9 - 0.0
23/08:00pm 18.4 17.9 14.8 79 2.1 E 11 15 6 8 1020.0 1020.0 0.0
23/07:30pm 17.1 17.3 14.8 86 1.3 E 7 17 4 9 1019.7 - 0.0
23/07:00pm 16.6 16.7 13.9 84 1.5 SSE 6 7 3 4 1019.6 1019.6 0.0
23/06:30pm 17.9 18.2 14.4 80 2.0 SE 6 9 3 5 1019.6 - 0.0
23/06:00pm 18.6 18.4 14.8 78 2.2 ESE 9 15 5 8 1019.0 1019.0 0.0
23/05:30pm 18.8 17.1 14.8 77 2.3 E 17 20 9 11 1018.8 - 0.0
23/05:00pm 19.0 17.9 14.3 74 2.7 E 13 19 7 10 1018.8 1018.8 0.0
23/04:30pm 19.4 18.5 14.8 75 2.7 E 13 20 7 11 1018.5 - 0.0
23/04:00pm 19.7 17.8 14.3 71 3.1 E 17 22 9 12 1018.4 1018.4 0.0
23/03:30pm 20.0 18.0 13.9 68 3.5 E 17 24 9 13 1018.5 - 0.0
23/03:00pm 20.8 19.1 13.7 64 4.1 E 15 24 8 13 1018.7 1018.7 0.0
23/02:30pm 20.9 18.9 12.8 60 4.6 ESE 15 20 8 11 1018.8 - 0.0
23/02:00pm 21.0 18.6 12.5 58 4.8 ESE 17 24 9 13 1018.7 1018.7 0.0
23/01:30pm 21.8 19.7 12.4 55 5.3 ESE 15 22 8 12 1019.0 - 0.0
23/01:00pm 20.9 18.2 11.7 55 5.1 ESE 17 24 9 13 1019.1 1019.1 0.0
23/12:30pm 21.0 19.6 13.3 61 4.4 ESE 13 22 7 12 1019.4 - 0.0
23/12:00pm 21.0 18.4 13.3 61 4.4 ESE 19 30 10 16 1020.2 1020.2 0.0
23/11:30am 20.2 18.1 13.7 66 3.7 ESE 17 20 9 11 1021.2 - 0.0
23/11:00am 19.6 18.0 13.8 69 3.3 ESE 15 22 8 12 1021.2 1021.2 0.0
23/10:30am 19.4 17.4 13.8 70 3.2 SE 17 22 9 12 1021.2 - 0.0
23/10:00am 19.0 17.1 12.9 67 3.4 SE 15 24 8 13 1021.5 1021.5 0.0
23/09:30am 18.5 17.1 13.4 72 2.9 SSE 13 19 7 10 1021.8 - 0.0
23/09:00am 17.4 15.3 13.5 78 2.2 SSE 17 22 9 12 1021.8 1021.8 0.2
23/08:30am 16.7 16.2 13.9 83 1.6 S 9 13 5 7 1021.6 - 0.2
23/08:00am 15.6 15.4 13.6 88 1.1 SSW 7 13 4 7 1021.2 1021.2 0.2
23/07:30am 14.6 14.2 13.1 91 0.8 WSW 7 11 4 6 1020.7 - 0.2
23/07:00am 13.5 13.0 12.6 94 0.5 WSW 7 11 4 6 1020.2 1020.2 0.2
23/06:30am 13.5 13.0 12.6 94 0.5 SW 7 9 4 5 1020.0 - 0.2
23/06:00am 13.6 13.1 12.7 94 0.5 SW 7 11 4 6 1019.7 1019.7 0.2
23/05:30am 13.8 13.4 12.9 94 0.5 SW 7 11 4 6 1019.3 - 0.2
23/05:00am 13.9 13.7 13.0 94 0.5 SW 6 7 3 4 1019.1 1019.1 0.0
23/04:30am 13.9 13.5 13.0 94 0.5 SW 7 9 4 5 1018.9 - 0.0
23/04:00am 14.1 13.8 13.2 94 0.5 SW 7 9 4 5 1018.7 1018.7 0.0
23/03:30am 14.3 14.0 13.4 94 0.5 SW 7 9 4 5 1018.5 - 0.0
23/03:00am 14.6 14.4 13.7 94 0.5 SSW 7 11 4 6 1018.5 1018.5 0.0
23/02:30am 14.3 13.7 13.4 94 0.5 WSW 9 11 5 6 1018.7 - 0.0
23/02:00am 14.4 13.9 13.7 96 0.4 SW 9 11 5 6 1018.8 1018.8 0.0
23/01:30am 14.6 14.2 14.1 97 0.3 SW 9 15 5 8 1019.3 - 0.0
23/01:00am 14.2 13.7 13.8 97 0.2 SW 9 13 5 7 1019.4 1019.4 0.0
23/12:30am 13.9 13.3 13.4 97 0.3 SW 9 11 5 6 1019.6 - 0.0
23/12:00am 13.5 12.7 13.0 97 0.3 W 9 9 5 5 1019.5 1019.5 0.0
 
Date/Time
EST
Temp
°C
App
Temp
°C
Dew
Point
Rel
Hum
%
Delta-T
°C
Wind Press
QNH
hPa
Press
MSL
hPa
Rain
since 9 am
mm
Dir
 
Spd
km/h
Gust
km/h
Spd
kts
Gust
kts
22/11:30pm 13.0 12.0 12.3 95 0.4 W 9 9 5 5 1019.6 - 0.0
22/11:00pm 13.2 12.7 12.6 96 0.3 SW 7 9 4 5 1019.7 1019.7 0.0
22/10:30pm 13.5 13.0 12.8 95 0.4 SW 7 7 4 4 1020.0 - 0.0
22/10:00pm 13.6 13.4 12.9 95 0.4 WSW 6 7 3 4 1020.0 1020.0 0.0
22/09:30pm 13.9 13.7 13.0 94 0.5 WSW 6 7 3 4 1020.0 - 0.0
22/09:00pm 14.1 14.0 13.2 94 0.5 WSW 6 7 3 4 1019.9 1019.9 0.0
22/08:30pm 14.5 14.3 13.6 94 0.5 WSW 7 7 4 4 1019.8 - 0.0
22/08:00pm 14.7 14.7 13.6 93 0.6 W 6 7 3 4 1019.6 1019.6 0.0
22/07:30pm 15.1 15.2 13.9 92 0.7 W 6 7 3 4 1019.4 - 0.0
22/07:00pm 15.8 17.2 14.4 91 0.8 CALM 0 0 0 0 1018.9 1018.9 0.0
22/06:30pm 16.8 18.5 15.1 90 1.0 CALM 0 0 0 0 1018.7 - 0.0

Other Formats:

Comma delimited format used in spreadsheet applications
http://www.bom.gov.au/fwo/IDQ60801/IDQ60801.94373.axf

JavaScript Object Notation format (JSON) in row-major order
http://www.bom.gov.au/fwo/IDQ60801/IDQ60801.94373.json